FW8537 Weather Reports


Display with metric or nautical units.
time (UTC)temp
F
wind
direction
speed
MPH
gust
MPH
rain 1hr
in
rain 24hr
in
rain mn
in
humidity
%
barometer
mb
20260502170301 91 208 6.0 14.0 0.00 0.00 0.00 65 1007.4
20260502164300 91 227 5.0 15.0 0.00 0.00 0.00 65 1007.7
20260502163803 91 155 5.0 14.0 0.00 0.00 0.00 67 1007.7
20260502163303 90 240 4.0 13.0 0.00 0.00 0.00 67 1007.7
20260502163112 91 296 4.0 13.0 0.00 0.00 0.00 65 1007.8
20260502163107 90 246 5.0 13.0 0.00 0.00 0.00 66 1007.7
20260502163043 90 226 4.0 13.0 0.00 0.00 0.00 66 1007.7
20260502162612 90 131 5.0 14.0 0.00 0.00 0.00 67 1007.8
20260502162108 90 224 6.0 14.0 0.00 0.00 0.00 67 1007.8
20260502161531 89 244 5.0 14.0 0.00 0.00 0.00 67 1007.8
20260502161301 89 245 7.0 16.0 0.00 0.00 0.00 67 1007.9
20260502160802 90 226 6.0 16.0 0.00 0.00 0.00 66 1007.9
20260502160303 89 196 6.0 16.0 0.00 0.00 0.00 66 1007.9
20260502152305 88 182 6.0 16.0 0.00 0.00 0.00 71 1007.9
20260502151803 88 288 5.0 16.0 0.00 0.00 0.00 72 1007.9
20260502151536 88 140 5.0 14.0 0.00 0.00 0.00 72 1007.8
20260502151302 88 235 5.0 15.0 0.00 0.00 0.00 74 1007.9
20260502150803 88 215 5.0 13.0 0.00 0.00 0.00 73 1007.9
20260502150302 87 205 5.0 16.0 0.00 0.00 0.00 75 1007.9
20260502140106 82 236 3.0 11.0 0.00 0.00 0.00 84 1008.0
20260502130748 78 159 2.0 5.0 0.00 0.00 0.00 86 1007.8
20260502130231 77 225 2.0 7.0 0.00 0.00 0.00 86 1007.8
20260502123730 75 113 0.0 2.0 0.00 0.00 0.00 88 1007.8
20260502123230 75 190 0.0 2.0 0.00 0.00 0.00 89 1007.8
20260502123002 74 211 0.0 2.0 0.00 0.00 0.00 89 1007.6
20260502122737 74 211 0.0 2.0 0.00 0.00 0.00 89 1007.7
20260502122230 74 213 0.0 3.0 0.00 0.00 0.00 90 1007.7
20260502121729 73 221 1.0 6.0 0.00 0.00 0.00 90 1007.7
20260502121502 72 214 1.0 6.0 0.00 0.00 0.00 90 1007.6
20260502121229 73 197 1.0 6.0 0.00 0.00 0.00 91 1007.7
20260502120728 72 209 1.0 3.0 0.00 0.00 0.00 91 1007.7
20260502120229 71 213 1.0 5.0 0.00 0.00 0.00 91 1007.7
20260502115230 71 219 1.0 4.0 0.00 0.00 0.00 92 1007.5
20260502114729 71 194 1.0 4.0 0.00 0.00 0.00 92 1007.5
20260502114534 70 227 1.0 4.0 0.00 0.00 0.00 93 1007.6
20260502114231 70 198 1.0 4.0 0.00 0.00 0.00 93 1007.7
20260502113730 70 210 0.0 3.0 0.00 0.00 0.00 93 1007.7
20260502113524 70 223 0.0 2.0 0.00 0.00 0.00 93 1007.7
20260502113024 69 223 0.0 2.0 0.00 0.00 0.00 93 1007.7
20260502112729 70 221 0.0 2.0 0.00 0.00 0.00 93 1007.8
20260502112331 69 207 0.0 3.0 0.00 0.00 0.00 93 1007.8
20260502112310 69 207 0.0 2.0 0.00 0.00 0.00 93 1007.8
20260502111504 69 207 0.0 3.0 0.00 0.00 0.00 93 1007.7
20260502111230 69 213 0.0 3.0 0.00 0.00 0.00 93 1007.8
20260502110731 69 212 0.0 2.0 0.00 0.00 0.00 93 1007.8
20260502110530 69 215 0.0 3.0 0.00 0.00 0.00 93 1007.8
20260502110059 69 205 0.0 3.0 0.00 0.00 0.00 93 1007.7
20260502105727 69 217 0.0 3.0 0.00 0.00 0.00 93 1007.7
20260502105218 69 213 0.0 2.0 0.00 0.00 0.00 93 1007.7
20260502105012 69 211 0.0 1.0 0.00 0.00 0.00 93 1007.7
20260502104539 68 211 0.0 1.0 0.00 0.00 0.00 93 1007.5
20260502104210 69 225 0.0 2.0 0.00 0.00 0.00 92 1007.6
20260502103710 69 213 0.0 2.0 0.00 0.00 0.00 92 1007.6
20260502103208 69 223 0.0 2.0 0.00 0.00 0.00 92 1007.6
20260502103015 69 160 0.0 2.0 0.00 0.00 0.00 92 1007.4
20260502102704 69 202 0.0 2.0 0.00 0.00 0.00 92 1007.5
20260502102203 69 115 0.0 1.0 0.00 0.00 0.00 92 1007.5
20260502101704 69 194 0.0 3.0 0.00 0.00 0.00 92 1007.5
20260502101607 69 194 0.0 3.0 0.00 0.00 0.00 92 1007.4
20260502101455 69 211 0.0 3.0 0.00 0.00 0.00 92 1007.6
20260502100705 69 219 0.0 2.0 0.00 0.00 0.00 92 1007.6
20260502100203 70 213 0.0 2.0 0.00 0.00 0.00 92 1007.6
20260502091533 70 244 0.0 1.0 0.00 0.00 0.00 91 1007.3
20260502091144 71 236 0.0 1.0 0.00 0.00 0.00 91 1007.4
20260502090641 71 231 0.0 1.0 0.00 0.00 0.00 91 1007.4
20260502090447 71 229 0.0 2.0 0.00 0.00 0.00 90 1007.4
20260502071533 73 171 2.0 5.0 0.00 0.00 0.00 87 1007.3
20260502071130 73 223 1.0 5.0 0.00 0.00 0.00 88 1007.5
20260502070923 73 204 0.0 3.0 0.00 0.00 0.00 88 1007.5
20260502070130 73 211 0.0 2.0 0.00 0.00 0.00 88 1007.5
20260502070033 73 240 0.0 2.0 0.00 0.00 0.00 88 1007.3
20260502065917 73 243 0.0 2.0 0.00 0.00 0.00 88 1007.4
20260502065129 73 240 0.0 3.0 0.00 0.00 0.00 88 1007.4
20260502064630 74 233 0.0 3.0 0.00 0.00 0.00 88 1007.4
20260502064504 73 218 0.0 3.0 0.00 0.00 0.00 88 1007.3
20260502064129 74 221 0.0 2.0 0.00 0.00 0.00 88 1007.4
20260502063628 74 223 1.0 2.0 0.00 0.00 0.00 88 1007.4
20260502063130 74 219 1.0 4.0 0.00 0.00 0.00 88 1007.4
20260502063034 74 198 0.0 4.0 0.00 0.00 0.00 88 1007.2
20260502062629 74 220 1.0 4.0 0.00 0.00 0.00 88 1007.4
20260502062131 74 219 0.0 3.0 0.00 0.00 0.00 88 1007.4
20260502061924 74 229 0.0 3.0 0.00 0.00 0.00 88 1007.4
20260502061533 74 229 0.0 3.0 0.00 0.00 0.00 88 1007.6
20260502061456 74 239 0.0 2.0 0.00 0.00 0.00 89 1007.7
20260502060629 74 219 0.0 1.0 0.00 0.00 0.00 88 1007.7
20260502060424 74 219 0.0 1.0 0.00 0.00 0.00 88 1007.7
20260502060007 74 210 0.0 1.0 0.00 0.00 0.00 88 1007.8
20260502055630 75 209 0.0 1.0 0.00 0.00 0.00 88 1007.9
20260502055123 75 210 0.0 2.0 0.00 0.00 0.00 88 1007.9
20260502054623 75 211 0.0 3.0 0.00 0.00 0.00 88 1007.9
20260502054508 74 211 0.0 3.0 0.00 0.00 0.00 88 1007.9
20260502054121 75 218 1.0 3.0 0.00 0.00 0.00 88 1008.0
20260502053623 75 228 1.0 3.0 0.00 0.00 0.00 88 1008.0
20260502053124 75 207 1.0 3.0 0.00 0.00 0.00 88 1008.0
20260502053002 75 219 1.0 3.0 0.00 0.00 0.00 88 1008.1
20260502052622 75 145 1.0 4.0 0.00 0.00 0.00 88 1008.3
20260502052123 75 196 1.0 4.0 0.00 0.00 0.00 88 1008.3
20260502051618 76 205 1.0 5.0 0.00 0.00 0.00 88 1008.3
20260502051505 75 204 0.0 5.0 0.00 0.00 0.00 88 1008.2
20260502051108 76 212 1.0 5.0 0.00 0.00 0.00 88 1008.3
20260502050606 76 196 1.0 4.0 0.00 0.00 0.00 87 1008.3
20260502050115 76 217 0.0 2.0 0.00 0.00 0.00 87 1008.3
20260502050002 75 205 0.0 2.0 0.00 0.00 0.00 87 1008.2
20260502045606 76 195 0.0 2.0 0.00 0.00 0.00 87 1008.3
20260502045103 76 217 0.0 3.0 0.00 0.00 0.00 87 1008.3
20260502044603 76 217 1.0 3.0 0.00 0.00 0.00 87 1008.3
20260502044555 76 217 0.0 3.0 0.00 0.00 0.00 87 1008.2
20260502044103 76 184 1.0 3.0 0.00 0.00 0.00 87 1008.1
20260502043601 76 209 1.0 3.0 0.00 0.00 0.00 87 1008.1
20260502043159 76 223 1.0 3.0 0.00 0.00 0.00 87 1008.2
20260502043135 76 216 0.0 3.0 0.00 0.00 0.00 87 1008.1
20260502043117 76 218 0.0 3.0 0.00 0.00 0.00 87 1008.1
20260502042103 77 215 1.0 4.0 0.00 0.00 0.00 86 1008.2
20260502041601 77 188 1.0 4.0 0.00 0.00 0.00 86 1008.2
20260502041535 76 172 1.0 4.0 0.00 0.00 0.00 86 1008.2
20260502041103 77 228 1.0 3.0 0.00 0.00 0.00 86 1008.3
20260502040555 77 217 1.0 3.0 0.00 0.00 0.00 86 1008.3
20260502040350 77 209 1.0 3.0 0.00 0.00 0.00 86 1008.3
20260502040031 76 220 0.0 3.0 0.00 0.00 0.00 86 1008.3
20260502035555 77 146 1.0 4.0 0.00 0.00 0.00 85 1008.4
20260502035055 77 213 2.0 5.0 0.00 0.00 0.00 85 1008.4
20260502034554 77 167 1.0 5.0 0.00 0.00 0.00 85 1008.4
20260502034537 77 206 1.0 5.0 0.00 0.00 0.00 85 1008.3
20260502034055 77 217 1.0 9.0 0.00 0.00 0.00 85 1008.4
20260502033855 78 230 2.0 9.0 0.00 0.00 0.00 85 1008.4
20260502033056 78 180 2.0 6.0 0.00 0.00 0.00 84 1008.4
20260502033012 77 207 1.0 6.0 0.00 0.00 0.00 84 1008.2
20260502032553 78 196 2.0 7.0 0.00 0.00 0.00 84 1008.3
20260502032059 78 148 2.0 7.0 0.00 0.00 0.00 84 1008.3
20260502031551 77 209 1.0 5.0 0.00 0.00 0.00 84 1008.2
20260502031544 78 190 2.0 5.0 0.00 0.00 0.00 84 1008.3
20260502031038 78 169 2.0 6.0 0.00 0.00 0.00 84 1008.3
20260502030531 78 215 2.0 6.0 0.00 0.00 0.00 84 1008.3
20260502030038 78 142 1.0 6.0 0.00 0.00 0.00 84 1008.3
20260502030032 78 142 2.0 6.0 0.00 0.00 0.00 84 1008.4
20260502025531 78 201 2.0 6.0 0.00 0.00 0.00 84 1008.4
20260502025326 78 220 2.0 6.0 0.00 0.00 0.00 84 1008.4
20260502024529 78 207 2.0 8.0 0.00 0.00 0.00 84 1008.1
20260502024524 78 200 2.0 8.0 0.00 0.00 0.00 84 1008.0
20260502024030 78 161 2.0 8.0 0.00 0.00 0.00 83 1008.1
20260502023529 79 207 1.0 7.0 0.00 0.00 0.00 83 1008.1
20260502023035 79 174 1.0 4.0 0.00 0.00 0.00 83 1007.9
20260502023005 78 201 1.0 4.0 0.00 0.00 0.00 83 1007.8
20260502022828 79 150 2.0 9.0 0.00 0.00 0.00 83 1007.9
20260502022032 79 142 2.0 9.0 0.00 0.00 0.00 83 1007.9
20260502021530 79 162 2.0 5.0 0.00 0.00 0.00 83 1007.8
20260502021504 79 174 1.0 5.0 0.00 0.00 0.00 83 1007.7
20260502021030 79 159 2.0 7.0 0.00 0.00 0.00 82 1007.8
20260502020531 80 163 2.0 8.0 0.00 0.00 0.00 82 1007.8
20260502020024 80 130 3.0 8.0 0.00 0.00 0.00 82 1007.7
20260502020003 79 179 1.0 8.0 0.00 0.00 0.00 82 1007.6
20260502015815 80 134 3.0 9.0 0.00 0.00 0.00 82 1007.7
20260502015022 79 119 2.0 9.0 0.00 0.00 0.00 83 1007.7
20260502014559 79 125 2.0 5.0 0.00 0.00 0.00 84 1007.6
20260502014521 79 124 2.0 8.0 0.00 0.00 0.00 84 1007.4
20260502014018 80 213 3.0 8.0 0.00 0.00 0.00 84 1007.4
20260502013518 80 123 3.0 8.0 0.00 0.00 0.00 85 1007.4
20260502013046 79 118 2.0 8.0 0.00 0.00 0.00 85 1007.2
20260502013017 80 120 3.0 8.0 0.00 0.00 0.00 85 1007.3
20260502012516 80 111 4.0 8.0 0.00 0.00 0.00 85 1007.3
20260502012017 80 126 3.0 8.0 0.00 0.00 0.00 85 1007.3
20260502011548 79 137 3.0 7.0 0.00 0.00 0.00 85 1007.1
20260502011514 80 123 3.0 7.0 0.00 0.00 0.00 85 1007.3
20260502011015 80 124 3.0 7.0 0.00 0.00 0.00 85 1007.3
20260502010513 80 121 4.0 9.0 0.00 0.00 0.00 85 1007.3
20260502010031 80 103 4.0 9.0 0.00 0.00 0.00 84 1006.8
20260502010011 80 113 4.0 9.0 0.00 0.00 0.00 84 1006.9
20260502005505 80 119 4.0 8.0 0.00 0.00 0.00 84 1006.9
20260502005005 80 111 3.0 6.0 0.00 0.00 0.00 84 1006.9
20260502004754 80 119 3.0 7.0 0.00 0.00 0.00 83 1006.7
20260502004003 80 129 4.0 7.0 0.00 0.00 0.00 83 1006.7
20260502003504 81 96 3.0 5.0 0.00 0.00 0.00 82 1006.7
20260502003006 81 111 3.0 5.0 0.00 0.00 0.00 82 1006.3
20260502003003 80 111 3.0 5.0 0.00 0.00 0.00 82 1006.2
20260502002506 81 128 3.0 7.0 0.00 0.00 0.00 81 1006.3
20260502002006 81 112 3.0 7.0 0.00 0.00 0.00 81 1006.3
20260502001515 81 127 2.0 5.0 0.00 0.00 0.00 80 1006.2
20260502001507 82 136 3.0 5.0 0.00 0.00 0.00 80 1006.3
20260502001005 82 103 3.0 7.0 0.00 0.00 0.00 80 1006.3
20260502000506 82 105 4.0 7.0 0.00 0.00 0.00 79 1006.3
20260502000116 82 92 3.0 7.0 0.00 0.00 0.00 79 1006.2
20260502000003 82 113 4.0 7.0 0.00 0.00 0.00 79 1006.3
20260501235749 82 121 4.0 7.0 0.00 0.00 0.00 78 1006.3
20260501235002 83 136 4.0 8.0 0.00 0.00 0.00 78 1006.3
20260501234535 83 134 3.0 8.0 0.00 0.00 0.00 77 1005.9
20260501234502 83 125 4.0 9.0 0.00 0.00 0.00 78 1006.0
20260501234002 83 119 5.0 9.0 0.00 0.00 0.00 76 1006.0
20260501233502 84 128 3.0 8.0 0.00 0.00 0.00 76 1006.0
20260501233030 83 117 2.0 7.0 0.00 0.00 0.00 76 1005.7
20260501233001 84 115 3.0 7.0 0.00 0.00 0.00 75 1005.8
20260501232501 84 115 4.0 7.0 0.00 0.00 0.00 75 1005.8
20260501232254 84 90 4.0 7.0 0.00 0.00 0.00 74 1005.8
20260501231523 84 108 2.0 5.0 0.00 0.00 0.00 74 1005.7
20260501231503 84 121 3.0 5.0 0.00 0.00 0.00 74 1005.8
20260501231001 84 136 3.0 7.0 0.00 0.00 0.00 74 1005.8
20260501230727 84 83 3.0 6.0 0.00 0.00 0.00 77 1005.8
20260501230722 84 134 4.0 8.0 0.00 0.00 0.00 75 1005.8
20260501230649 84 113 3.0 7.0 0.00 0.00 0.00 74 1005.8
20260501230423 84 138 4.0 8.0 0.00 0.00 0.00 75 1005.8
20260501230055 84 104 1.0 7.0 0.00 0.00 0.00 75 1005.7
20260501224544 83 96 3.0 6.0 0.00 0.00 0.00 77 1005.7
20260501224501 84 103 3.0 6.0 0.00 0.00 0.00 77 1005.7
20260501224002 83 94 3.0 6.0 0.00 0.00 0.00 77 1005.7
20260501223501 83 84 4.0 6.0 0.00 0.00 0.00 77 1005.7
20260501223031 83 78 3.0 6.0 0.00 0.00 0.00 77 1005.6
20260501223002 84 100 4.0 8.0 0.00 0.00 0.00 77 1005.7
20260501222501 84 118 5.0 9.0 0.00 0.00 0.00 77 1005.7
20260501222000 84 82 6.0 13.0 0.00 0.00 0.00 75 1005.7
20260501221525 83 122 6.0 13.0 0.00 0.00 0.00 76 1005.5
20260501221502 84 110 7.0 13.0 0.00 0.00 0.00 76 1005.6
20260501221001 84 92 7.0 10.0 0.00 0.00 0.00 77 1005.6
20260501220504 84 117 7.0 13.0 0.00 0.00 0.00 77 1005.6
20260501220231 84 103 8.0 13.0 0.00 0.00 0.00 78 1005.7
20260501220013 84 103 6.0 12.0 0.00 0.00 0.00 78 1005.6
20260501215503 84 90 9.0 14.0 0.00 0.00 0.00 76 1005.7
20260501215005 85 104 9.0 14.0 0.00 0.00 0.00 75 1005.7
20260501214509 84 90 8.0 13.0 0.00 0.00 0.00 74 1005.7
20260501214501 85 90 8.0 13.0 0.00 0.00 0.00 74 1005.8
20260501214002 85 105 7.0 14.0 0.00 0.00 0.00 73 1005.8
20260501213503 85 130 8.0 14.0 0.00 0.00 0.00 75 1005.8
20260501213010 85 103 8.0 14.0 0.00 0.00 0.00 72 1005.7
20260501213005 85 103 8.0 14.0 0.00 0.00 0.00 72 1005.8
20260501212503 85 110 8.0 13.0 0.00 0.00 0.00 74 1005.8
20260501212000 85 103 9.0 13.0 0.00 0.00 0.00 74 1005.8
20260501211554 84 120 8.0 13.0 0.00 0.00 0.00 74 1005.7
20260501211501 85 98 8.0 13.0 0.00 0.00 0.00 75 1005.9
20260501211003 85 100 8.0 13.0 0.00 0.00 0.00 73 1005.9
20260501210501 85 113 8.0 15.0 0.00 0.00 0.00 73 1005.9
20260501210045 84 94 8.0 14.0 0.00 0.00 0.00 74 1006.1
20260501210001 85 113 7.0 15.0 0.00 0.00 0.00 74 1006.2
20260501205601 85 119 8.0 13.0 0.00 0.00 0.00 74 1006.2
20260501205539 85 69 8.0 13.0 0.00 0.00 0.00 73 1006.2
20260501204539 85 111 7.0 12.0 0.00 0.00 0.00 73 1006.2
20260501204501 85 107 8.0 13.0 0.00 0.00 0.00 73 1006.3
20260501204301 85 126 8.0 13.0 0.00 0.00 0.00 74 1006.3
20260501203502 85 87 7.0 14.0 0.00 0.00 0.00 73 1006.3
20260501203034 85 96 6.0 14.0 0.00 0.00 0.00 75 1006.2
20260501203001 85 66 7.0 14.0 0.00 0.00 0.00 75 1006.4
20260501202502 85 118 8.0 14.0 0.00 0.00 0.00 75 1006.4
20260501202002 84 107 9.0 15.0 0.00 0.00 0.00 75 1006.4
20260501201801 85 98 11.0 16.0 0.00 0.00 0.00 74 1006.8
20260501201002 85 125 9.0 16.0 0.00 0.00 0.00 75 1006.8
20260501200755 85 123 8.0 15.0 0.00 0.00 0.00 74 1006.8
20260501200031 85 85 7.0 14.0 0.00 0.00 0.00 74 1006.7
20260501200002 85 98 9.0 15.0 0.00 0.00 0.00 74 1006.9
20260501195501 86 93 6.0 14.0 0.00 0.00 0.00 72 1006.9
20260501195001 87 81 3.0 10.0 0.00 0.00 0.00 72 1006.9
20260501194511 87 77 1.0 10.0 0.00 0.00 0.00 71 1007.1
20260501194502 87 77 4.0 10.0 0.00 0.00 0.00 71 1007.2
20260501194004 88 89 3.0 10.0 0.00 0.00 0.00 68 1007.2
20260501193504 92 134 1.0 8.0 0.00 0.00 0.00 55 1007.2
20260501193015 92 289 1.0 4.0 0.00 0.00 0.00 52 1007.0
20260501193005 92 289 2.0 4.0 0.00 0.00 0.00 52 1007.1
20260501192503 91 222 2.0 7.0 0.00 0.00 0.00 56 1007.1
20260501192002 91 236 1.0 7.0 0.00 0.00 0.00 55 1007.1
20260501191508 91 78 0.0 3.0 0.00 0.00 0.00 53 1007.2
20260501191503 92 78 1.0 5.0 0.00 0.00 0.00 53 1007.3
20260501191004 92 9 2.0 7.0 0.00 0.00 0.00 51 1007.3
20260501190505 93 209 3.0 8.0 0.00 0.00 0.00 51 1007.3
20260501190013 93 257 3.0 8.0 0.00 0.00 0.00 51 1007.4
20260501190002 93 262 2.0 8.0 0.00 0.00 0.00 51 1007.5
20260501185504 93 271 1.0 6.0 0.00 0.00 0.00 52 1007.5
20260501185256 93 170 2.0 9.0 0.00 0.00 0.00 52 1007.5
20260501184507 92 186 1.0 9.0 0.00 0.00 0.00 52 1007.7
20260501184502 92 209 2.0 9.0 0.00 0.00 0.00 52 1007.8
20260501184004 92 185 2.0 6.0 0.00 0.00 0.00 55 1007.8
20260501183503 92 148 2.0 7.0 0.00 0.00 0.00 54 1007.8
20260501183012 92 225 1.0 7.0 0.00 0.00 0.00 52 1007.9
20260501183004 92 225 2.0 7.0 0.00 0.00 0.00 52 1008.0
20260501182502 93 245 2.0 6.0 0.00 0.00 0.00 51 1008.0
20260501182003 93 231 2.0 7.0 0.00 0.00 0.00 52 1008.0
20260501181513 92 261 2.0 7.0 0.00 0.00 0.00 53 1008.0
20260501181503 93 263 1.0 7.0 0.00 0.00 0.00 53 1008.1
20260501181002 92 263 1.0 5.0 0.00 0.00 0.00 54 1008.1
20260501180503 92 233 2.0 7.0 0.00 0.00 0.00 56 1008.1
20260501180256 91 140 2.0 7.0 0.00 0.00 0.00 57 1008.4
20260501175504 91 188 2.0 7.0 0.00 0.00 0.00 56 1008.4
20260501175003 91 270 3.0 9.0 0.00 0.00 0.00 56 1008.4
20260501174559 90 287 2.0 9.0 0.00 0.00 0.00 59 1008.2
20260501174503 90 165 3.0 9.0 0.00 0.00 0.00 58 1008.4
20260501174002 90 216 3.0 9.0 0.00 0.00 0.00 59 1008.4
20260501173523 91 217 3.0 8.0 0.00 0.00 0.00 57 1008.4
20260501173045 90 298 2.0 7.0 0.00 0.00 0.00 56 1008.3
20260501173000 91 229 2.0 6.0 0.00 0.00 0.00 56 1008.5
20260501172759 90 221 2.0 5.0 0.00 0.00 0.00 61 1008.5
20260501172256 89 225 3.0 8.0 0.00 0.00 0.00 61 1008.5
20260501171533 88 136 3.0 8.0 0.00 0.00 0.00 63 1008.4
20260501171500 88 153 2.0 8.0 0.00 0.00 0.00 63 1008.5